Regional Weather Roundup
Issued by NWS Kansas City/Pleasant Hill, MO

Home | Current Version | Previous Version | Graphics & Text | Print | Product List | Glossary Off
Versions: 1 2 3 4 5 6 7 8 9 10 11 12 13 14 15 16 17 18 19 20 21 22 23 24 25 26 27 28 29 30 31 32 33 34 35 36 37 38 39 40 41 42 43 44 45 46 47 48 49 50

000
ASUS43 KEAX 272311
RWREAX

WEATHER ROUNDUP FOR EASTERN KANSAS AND NORTHWEST MISSOURI
NATIONAL WEATHER SERVICE KANSAS CITY/PLEASANT HILL MO
600 PM CDT WED MAY 27 2015

KSZ040-057-103>105-MOZ028-029-037-043-280000-
...KANSAS CITY METROPOLITAN AREA...

CITY           SKY/WX    TMP DP  RH WIND       PRES   REMARKS
K.C. INTL      PTSUNNY   79  57  46 S3        30.06F
K.C. DOWNTOWN  PTSUNNY   83  49  30 S10       30.05F
LEES SUMMIT    MOSUNNY   80  54  40 VRB5      30.08S
OLATHE - IXD   MOSUNNY   80  52  37 SE7       30.07F
OLATHE - OJC   MOSUNNY   79  53  40 SE3       30.07F
LAWRENCE       MOSUNNY   81  51  35 S6        30.06F

$$

MOZ001>008-011>017-020>025-030>033-038>040-044>046-053-054-280000-
...NORTHERN AND CENTRAL MISSOURI...

CITY           SKY/WX    TMP DP  RH WIND       PRES   REMARKS
ST. JOSEPH     MOSUNNY   81  50  33 SE7       30.05F
MOSBY          PTCLDY    81  50  34 CALM      30.06F
WARRENSBURG    MOSUNNY   81  54  39 CALM      30.08S
WHITEMAN AFB   MOSUNNY   81  55  41 N2        30.07S
CLINTON        SUNNY     81  54  39 CALM      30.08S
SEDALIA        MOSUNNY   81  55  40 E5        30.09S
WARSAW         NOT AVBL
CHILLICOTHE    NOT AVBL
KIRKSVILLE     SUNNY     80  57  45 NW5       30.09S

$$

MOZ041-047>049-056>058-063>065-088>090-097-280000-
...EASTERN AND SOUTHERN MISSOURI...

CITY           SKY/WX    TMP DP  RH WIND       PRES   REMARKS
ST. LOUIS INTL MOSUNNY   82  58  43 NW13      30.06F
SPIRIT OF STL  SUNNY     82  59  45 NW8       30.05F
COLUMBIA       MOSUNNY   82  55  39 CALM      30.08S
JEFFERSON CITY MOSUNNY   83  52  34 N6        30.07S
ROLLA          SUNNY     78  57  48 W5        30.08S
OSAGE BEACH    SUNNY     81  54  39 N3        30.08
SPRINGFIELD    MOSUNNY   80  64  58 N6        30.07F
BRANSON        MOSUNNY   81  66  61 E7        30.09S
JOPLIN         PTSUNNY   81  67  62 CALM      30.05F
WEST PLAINS    PTSUNNY   81  64  56 S5        30.08F

$$

IAZ060-094-KSZ022-034>040-054-083-096-NEZ052-066-093-280000-
...KANSAS...SOUTHEAST NEBRASKA AND IOWA...

CITY           SKY/WX    TMP DP  RH WIND       PRES   REMARKS
TOPEKA         MOSUNNY   81  56  42 E9        30.05F
MANHATTAN      SUNNY     81  59  47 SE12      30.03F
EMPORIA        SUNNY     79  61  53 SE8       30.04F
CHANUTE        MOSUNNY   82  64  54 S6        30.03F
WICHITA        PTSUNNY   82  63  52 SE12      30.02S
OMAHA          CLOUDY    82  48  30 S7        30.03F
LINCOLN        MOSUNNY   83  47  28 SE10      30.04F
LAMONI         MOSUNNY   83  58  42 W6        30.07F
DES MOINES     MOSUNNY   82  53  36 W9        30.04F

$$



USA.gov is the U.S. government's official web portal to all federal, state and local government web resources and services.